Time,TemperatureF,DewpointF,PressureIn,WindDirection,WindDirectionDegrees,WindSpeedMPH,WindSpeedGustMPH,Humidity,HourlyPrecipIn,Conditions,Clouds,dailyrainin,SoftwareType,DateUTC
2013-11-29 00:01:00,34.0,15.8,30.46,NW,305,0.0,0.0,47,0.00,,,0.00,meteohub,2013-11-29 05:01:00,
2013-11-29 00:03:00,34.0,15.8,30.46,NW,305,0.0,0.0,47,0.00,,,0.00,meteohub,2013-11-29 05:03:00,
2013-11-29 00:06:00,34.0,15.8,30.46,NW,305,0.0,0.0,47,0.00,,,0.00,meteohub,2013-11-29 05:06:00,
2013-11-29 00:09:00,34.0,16.3,30.46,NW,305,0.0,0.0,48,0.00,,,0.00,meteohub,2013-11-29 05:09:00,
2013-11-29 00:14:00,34.0,16.3,30.46,NW,305,0.0,2.0,48,0.00,,,0.00,meteohub,2013-11-29 05:14:00,
2013-11-29 00:20:00,34.0,16.3,30.46,NW,305,0.0,2.0,48,0.00,,,0.00,meteohub,2013-11-29 05:20:00,
2013-11-29 00:25:00,34.0,16.3,30.46,NW,305,0.0,2.0,48,0.00,,,0.00,meteohub,2013-11-29 05:25:00,
2013-11-29 00:30:00,34.0,16.3,30.46,NW,305,0.0,2.0,48,0.00,,,0.00,meteohub,2013-11-29 05:30:00,
2013-11-29 00:35:00,34.0,16.3,30.46,NW,305,0.0,2.0,48,0.00,,,0.00,meteohub,2013-11-29 05:35:00,
2013-11-29 00:41:00,34.0,16.9,30.46,NW,305,0.0,1.0,49,0.00,,,0.00,meteohub,2013-11-29 05:41:00,
2013-11-29 00:46:00,34.0,16.3,30.46,NW,305,0.0,1.0,48,0.00,,,0.00,meteohub,2013-11-29 05:46:00,
2013-11-29 00:51:00,34.0,16.9,30.46,NW,305,0.0,1.0,49,0.00,,,0.00,meteohub,2013-11-29 05:51:00,
2013-11-29 00:56:00,34.0,16.9,30.46,NW,305,0.0,1.0,49,0.00,,,0.00,meteohub,2013-11-29 05:56:00,
2013-11-29 01:01:00,34.0,16.9,30.46,NW,305,0.0,1.0,49,0.00,,,0.00,meteohub,2013-11-29 06:01:00,
2013-11-29 01:06:00,33.8,17.1,30.46,NW,305,0.0,1.0,50,0.00,,,0.00,meteohub,2013-11-29 06:06:00,
2013-11-29 01:11:00,33.8,16.7,30.46,NW,305,0.0,1.0,49,0.00,,,0.00,meteohub,2013-11-29 06:11:00,
2013-11-29 01:17:00,33.8,16.2,30.46,NW,305,0.0,1.0,48,0.00,,,0.00,meteohub,2013-11-29 06:17:00,
2013-11-29 01:22:00,33.8,16.7,30.46,NW,305,0.0,1.0,49,0.00,,,0.00,meteohub,2013-11-29 06:22:00,
2013-11-29 01:27:00,33.8,16.7,30.46,NW,305,0.0,1.0,49,0.00,,,0.00,meteohub,2013-11-29 06:27:00,
2013-11-29 01:32:00,33.8,16.7,30.46,NW,305,0.0,1.0,49,0.00,,,0.00,meteohub,2013-11-29 06:32:00,
2013-11-29 01:38:00,33.6,16.5,30.47,NW,305,0.0,1.0,49,0.00,,,0.00,meteohub,2013-11-29 06:38:00,
2013-11-29 01:43:00,33.6,16.0,30.46,NW,305,0.0,1.0,48,0.00,,,0.00,meteohub,2013-11-29 06:43:00,
2013-11-29 01:48:00,33.6,16.0,30.46,NW,305,0.0,1.0,48,0.00,,,0.00,meteohub,2013-11-29 06:48:00,
2013-11-29 01:53:00,33.6,16.0,30.47,NW,305,0.0,1.0,48,0.00,,,0.00,meteohub,2013-11-29 06:53:00,
2013-11-29 01:58:00,33.6,16.0,30.47,NW,305,1.0,1.0,48,0.00,,,0.00,meteohub,2013-11-29 06:58:00,
2013-11-29 02:04:00,33.6,16.0,30.47,NW,305,0.0,1.0,48,0.00,,,0.00,meteohub,2013-11-29 07:04:00,
2013-11-29 02:09:00,33.6,16.0,30.47,NW,305,0.0,1.0,48,0.00,,,0.00,meteohub,2013-11-29 07:09:00,
2013-11-29 02:14:00,33.6,16.0,30.47,NW,305,0.0,1.0,48,0.00,,,0.00,meteohub,2013-11-29 07:14:00,
2013-11-29 02:19:00,33.6,16.0,30.47,NW,305,0.0,1.0,48,0.00,,,0.00,meteohub,2013-11-29 07:19:00,
2013-11-29 02:25:00,33.6,16.0,30.47,NW,305,0.0,1.0,48,0.00,,,0.00,meteohub,2013-11-29 07:25:00,
2013-11-29 02:30:00,33.6,15.6,30.47,NW,305,0.0,1.0,47,0.00,,,0.00,meteohub,2013-11-29 07:30:00,
2013-11-29 02:35:00,33.6,16.0,30.47,NW,305,0.0,2.0,48,0.00,,,0.00,meteohub,2013-11-29 07:35:00,
2013-11-29 02:40:00,33.6,16.5,30.47,NW,305,0.0,2.0,49,0.00,,,0.00,meteohub,2013-11-29 07:40:00,
2013-11-29 02:45:00,33.4,16.3,30.47,NW,305,0.0,2.0,49,0.00,,,0.00,meteohub,2013-11-29 07:45:00,
2013-11-29 02:51:00,33.4,16.3,30.47,NW,305,0.0,1.0,49,0.00,,,0.00,meteohub,2013-11-29 07:51:00,
2013-11-29 02:56:00,33.4,16.9,30.47,NW,305,0.0,1.0,50,0.00,,,0.00,meteohub,2013-11-29 07:56:00,
2013-11-29 03:01:00,33.4,16.9,30.47,NW,305,0.0,1.0,50,0.00,,,0.00,meteohub,2013-11-29 08:01:00,
2013-11-29 03:06:00,33.4,17.2,30.47,NW,305,0.0,1.0,51,0.00,,,0.00,meteohub,2013-11-29 08:06:00,
2013-11-29 03:11:00,33.3,17.1,30.47,NW,305,0.0,1.0,51,0.00,,,0.00,meteohub,2013-11-29 08:11:00,
2013-11-29 03:16:00,33.3,17.1,30.47,NW,305,0.0,0.0,51,0.00,,,0.00,meteohub,2013-11-29 08:16:00,
2013-11-29 03:21:00,33.3,17.1,30.47,NW,305,0.0,0.0,51,0.00,,,0.00,meteohub,2013-11-29 08:21:00,
2013-11-29 03:26:00,33.3,17.1,30.47,NW,305,0.0,0.0,51,0.00,,,0.00,meteohub,2013-11-29 08:26:00,
2013-11-29 03:31:00,33.3,17.6,30.47,NW,305,0.0,1.0,52,0.00,,,0.00,meteohub,2013-11-29 08:31:00,
2013-11-29 03:36:00,33.4,17.8,30.47,NW,305,0.0,1.0,52,0.00,,,0.00,meteohub,2013-11-29 08:36:00,
2013-11-29 03:41:00,33.3,17.6,30.47,NW,305,0.0,1.0,52,0.00,,,0.00,meteohub,2013-11-29 08:41:00,
2013-11-29 03:46:00,33.3,18.0,30.47,NW,305,0.0,1.0,53,0.00,,,0.00,meteohub,2013-11-29 08:46:00,
2013-11-29 03:51:00,33.4,18.1,30.47,NW,305,0.0,2.0,53,0.00,,,0.00,meteohub,2013-11-29 08:51:00,
2013-11-29 03:56:00,33.4,18.1,30.47,NW,305,0.0,2.0,53,0.00,,,0.00,meteohub,2013-11-29 08:56:00,
2013-11-29 04:01:00,33.3,18.5,30.47,NW,305,0.0,2.0,54,0.00,,,0.00,meteohub,2013-11-29 09:01:00,
2013-11-29 04:07:00,33.3,18.5,30.47,NW,305,0.0,2.0,54,0.00,,,0.00,meteohub,2013-11-29 09:07:00,
2013-11-29 04:12:00,33.3,18.9,30.47,NW,305,1.0,2.0,55,0.00,,,0.00,meteohub,2013-11-29 09:12:00,
2013-11-29 04:17:00,33.3,18.9,30.48,NW,305,0.0,1.0,55,0.00,,,0.00,meteohub,2013-11-29 09:17:00,
2013-11-29 04:22:00,33.3,19.2,30.47,NW,305,0.0,1.0,56,0.00,,,0.00,meteohub,2013-11-29 09:22:00,
2013-11-29 04:27:00,33.3,19.8,30.47,NW,305,0.0,1.0,57,0.00,,,0.00,meteohub,2013-11-29 09:27:00,
2013-11-29 04:32:00,33.3,20.1,30.48,NW,305,1.0,3.0,58,0.00,,,0.00,meteohub,2013-11-29 09:32:00,
2013-11-29 04:38:00,33.3,20.5,30.48,NW,305,1.0,3.0,59,0.00,,,0.00,meteohub,2013-11-29 09:38:00,
2013-11-29 04:43:00,33.3,20.5,30.48,NW,305,0.0,3.0,59,0.00,,,0.00,meteohub,2013-11-29 09:43:00,
2013-11-29 04:48:00,33.3,20.5,30.48,NW,305,0.0,3.0,59,0.00,,,0.00,meteohub,2013-11-29 09:48:00,
2013-11-29 04:53:00,33.1,20.3,30.48,NW,305,0.0,2.0,59,0.00,,,0.00,meteohub,2013-11-29 09:53:00,
2013-11-29 04:59:00,33.1,20.3,30.48,NW,305,1.0,2.0,59,0.00,,,0.00,meteohub,2013-11-29 09:59:00,
2013-11-29 05:04:00,33.1,20.3,30.48,NW,305,1.0,2.0,59,0.00,,,0.00,meteohub,2013-11-29 10:04:00,
2013-11-29 05:09:00,33.1,20.3,30.48,NW,305,1.0,2.0,59,0.00,,,0.00,meteohub,2013-11-29 10:09:00,
2013-11-29 05:14:00,33.1,20.3,30.48,NW,305,0.0,2.0,59,0.00,,,0.00,meteohub,2013-11-29 10:14:00,
2013-11-29 05:19:00,33.1,20.3,30.49,NW,305,0.0,2.0,59,0.00,,,0.00,meteohub,2013-11-29 10:19:00,
2013-11-29 05:25:00,33.1,20.3,30.49,NW,305,2.0,3.0,59,0.00,,,0.00,meteohub,2013-11-29 10:25:00,
2013-11-29 05:30:00,33.1,19.9,30.49,NW,305,1.0,3.0,58,0.00,,,0.00,meteohub,2013-11-29 10:30:00,
2013-11-29 05:35:00,33.1,19.9,30.49,NW,305,1.0,3.0,58,0.00,,,0.00,meteohub,2013-11-29 10:35:00,
2013-11-29 05:40:00,32.9,19.8,30.49,NW,305,1.0,3.0,58,0.00,,,0.00,meteohub,2013-11-29 10:40:00,
2013-11-29 05:46:00,32.9,19.8,30.49,NW,305,1.0,3.0,58,0.00,,,0.00,meteohub,2013-11-29 10:46:00,
2013-11-29 05:51:00,32.7,19.6,30.49,NW,305,0.0,3.0,58,0.00,,,0.00,meteohub,2013-11-29 10:51:00,
2013-11-29 05:56:00,32.7,19.9,30.50,NW,305,1.0,3.0,59,0.00,,,0.00,meteohub,2013-11-29 10:56:00,
2013-11-29 06:01:00,32.7,19.9,30.50,NW,305,2.0,3.0,59,0.00,,,0.00,meteohub,2013-11-29 11:01:00,
2013-11-29 06:07:00,32.7,19.9,30.50,NW,305,1.0,3.0,59,0.00,,,0.00,meteohub,2013-11-29 11:07:00,
2013-11-29 06:12:00,32.5,20.1,30.51,NW,305,0.0,3.0,60,0.00,,,0.00,meteohub,2013-11-29 11:12:00,
2013-11-29 06:17:00,32.4,19.9,30.51,NW,305,0.0,3.0,60,0.00,,,0.00,meteohub,2013-11-29 11:17:00,
2013-11-29 06:23:00,32.4,19.9,30.51,NW,305,0.0,3.0,60,0.00,,,0.00,meteohub,2013-11-29 11:23:00,
2013-11-29 06:28:00,32.2,19.9,30.51,NW,305,2.0,3.0,60,0.00,,,0.00,meteohub,2013-11-29 11:28:00,
2013-11-29 06:33:00,32.2,19.9,30.51,NW,305,1.0,3.0,60,0.00,,,0.00,meteohub,2013-11-29 11:33:00,
2013-11-29 06:38:00,32.2,19.9,30.52,NW,305,0.0,3.0,60,0.00,,,0.00,meteohub,2013-11-29 11:38:00,
2013-11-29 06:44:00,31.8,19.6,30.52,NW,305,0.0,3.0,60,0.00,,,0.00,meteohub,2013-11-29 11:44:00,
2013-11-29 06:49:00,31.8,19.6,30.52,NW,305,0.0,3.0,60,0.00,,,0.00,meteohub,2013-11-29 11:49:00,
2013-11-29 06:54:00,31.8,19.6,30.52,NW,305,0.0,3.0,60,0.00,,,0.00,meteohub,2013-11-29 11:54:00,
2013-11-29 06:59:00,31.6,19.4,30.52,NW,305,0.0,2.0,60,0.00,,,0.00,meteohub,2013-11-29 11:59:00,
2013-11-29 07:05:00,31.6,19.8,30.53,NW,305,0.0,2.0,61,0.00,,,0.00,meteohub,2013-11-29 12:05:00,
2013-11-29 07:10:00,31.6,19.8,30.53,NW,305,0.0,2.0,61,0.00,,,0.00,meteohub,2013-11-29 12:10:00,
2013-11-29 07:15:00,31.5,19.9,30.53,NW,305,0.0,2.0,62,0.00,,,0.00,meteohub,2013-11-29 12:15:00,
2013-11-29 07:20:00,31.5,20.3,30.53,NW,305,0.0,2.0,63,0.00,,,0.00,meteohub,2013-11-29 12:20:00,
2013-11-29 07:26:00,31.6,20.1,30.53,NW,305,0.0,2.0,62,0.00,,,0.00,meteohub,2013-11-29 12:26:00,
2013-11-29 07:31:00,31.8,20.3,30.54,NW,305,1.0,1.0,62,0.00,,,0.00,meteohub,2013-11-29 12:31:00,
2013-11-29 07:36:00,32.2,20.7,30.54,NW,305,0.0,1.0,62,0.00,,,0.00,meteohub,2013-11-29 12:36:00,
2013-11-29 07:41:00,32.4,20.8,30.54,NW,305,1.0,1.0,62,0.00,,,0.00,meteohub,2013-11-29 12:41:00,
2013-11-29 07:46:00,32.4,20.8,30.54,NW,305,0.0,1.0,62,0.00,,,0.00,meteohub,2013-11-29 12:46:00,
2013-11-29 07:51:00,32.5,21.0,30.55,NW,305,0.0,1.0,62,0.00,,,0.00,meteohub,2013-11-29 12:51:00,
2013-11-29 07:56:00,32.7,20.8,30.55,NW,305,0.0,2.0,61,0.00,,,0.00,meteohub,2013-11-29 12:56:00,
2013-11-29 08:01:00,32.9,20.8,30.55,NW,305,0.0,2.0,61,0.00,,,0.00,meteohub,2013-11-29 13:01:00,
2013-11-29 08:06:00,33.1,21.0,30.55,NW,305,0.0,2.0,61,0.00,,,0.00,meteohub,2013-11-29 13:06:00,
2013-11-29 08:11:00,33.3,21.2,30.56,NW,305,0.0,2.0,61,0.00,,,0.00,meteohub,2013-11-29 13:11:00,
2013-11-29 08:16:00,33.4,21.0,30.56,NW,305,0.0,2.0,60,0.00,,,0.00,meteohub,2013-11-29 13:16:00,
2013-11-29 08:21:00,33.6,20.5,30.56,NW,305,1.0,0.0,58,0.00,,,0.00,meteohub,2013-11-29 13:21:00,
2013-11-29 08:26:00,33.8,20.7,30.56,NW,305,1.0,0.0,58,0.00,,,0.00,meteohub,2013-11-29 13:26:00,
2013-11-29 08:31:00,33.6,20.5,30.56,NW,305,0.0,0.0,58,0.00,,,0.00,meteohub,2013-11-29 13:31:00,
2013-11-29 08:36:00,33.6,20.5,30.56,NW,305,0.0,0.0,58,0.00,,,0.00,meteohub,2013-11-29 13:36:00,
2013-11-29 08:41:00,33.6,20.5,30.56,NW,305,1.0,0.0,58,0.00,,,0.00,meteohub,2013-11-29 13:41:00,
2013-11-29 08:46:00,33.6,20.5,30.56,NW,305,0.0,0.0,58,0.00,,,0.00,meteohub,2013-11-29 13:46:00,
2013-11-29 08:51:00,33.6,20.5,30.56,NW,305,0.0,3.0,58,0.00,,,0.00,meteohub,2013-11-29 13:51:00,
2013-11-29 08:56:00,34.0,20.8,30.56,WNW,300,0.0,3.0,58,0.00,,,0.00,meteohub,2013-11-29 13:56:00,
2013-11-29 09:01:00,34.2,20.5,30.57,NW,305,0.0,3.0,57,0.00,,,0.00,meteohub,2013-11-29 14:01:00,
2013-11-29 09:07:00,34.3,20.3,30.57,NW,305,0.0,3.0,56,0.00,,,0.00,meteohub,2013-11-29 14:07:00,
2013-11-29 09:12:00,34.5,20.5,30.57,NW,305,1.0,3.0,56,0.00,,,0.00,meteohub,2013-11-29 14:12:00,
2013-11-29 09:17:00,34.9,20.8,30.57,NW,305,0.0,4.0,56,0.00,,,0.00,meteohub,2013-11-29 14:17:00,
2013-11-29 09:22:00,35.1,21.0,30.57,NW,305,0.0,4.0,56,0.00,,,0.00,meteohub,2013-11-29 14:22:00,
2013-11-29 09:27:00,35.4,20.8,30.57,NW,305,0.0,4.0,55,0.00,,,0.00,meteohub,2013-11-29 14:27:00,
2013-11-29 09:33:00,35.6,21.0,30.57,NW,304,0.0,4.0,55,0.00,,,0.00,meteohub,2013-11-29 14:33:00,
2013-11-29 09:38:00,36.0,21.0,30.57,NW,305,0.0,4.0,54,0.00,,,0.00,meteohub,2013-11-29 14:38:00,
2013-11-29 09:43:00,36.1,21.0,30.57,WNW,303,1.0,4.0,54,0.00,,,0.00,meteohub,2013-11-29 14:43:00,
2013-11-29 09:48:00,36.1,20.7,30.57,WSW,252,1.0,3.0,53,0.00,,,0.00,meteohub,2013-11-29 14:48:00,
2013-11-29 09:54:00,36.3,20.8,30.57,NW,305,0.0,3.0,53,0.00,,,0.00,meteohub,2013-11-29 14:54:00,
2013-11-29 09:59:00,36.5,20.5,30.57,WSW,245,0.0,3.0,52,0.00,,,0.00,meteohub,2013-11-29 14:59:00,
2013-11-29 10:04:00,36.7,20.7,30.57,WSW,246,0.0,3.0,52,0.00,,,0.00,meteohub,2013-11-29 15:04:00,
2013-11-29 10:09:00,37.0,20.7,30.57,SW,236,1.0,3.0,51,0.00,,,0.00,meteohub,2013-11-29 15:09:00,
2013-11-29 10:15:00,37.6,21.0,30.57,NW,305,0.0,3.0,51,0.00,,,0.00,meteohub,2013-11-29 15:15:00,
2013-11-29 10:20:00,37.9,20.5,30.57,NW,305,0.0,3.0,49,0.00,,,0.00,meteohub,2013-11-29 15:20:00,
2013-11-29 10:25:00,38.5,21.4,30.57,NW,305,0.0,3.0,50,0.00,,,0.00,meteohub,2013-11-29 15:25:00,
2013-11-29 10:30:00,38.7,21.2,30.57,NW,305,0.0,3.0,49,0.00,,,0.00,meteohub,2013-11-29 15:30:00,
2013-11-29 10:36:00,38.8,20.8,30.57,East,84,2.0,3.0,48,0.00,,,0.00,meteohub,2013-11-29 15:36:00,
2013-11-29 10:41:00,38.8,21.4,30.57,South,187,1.0,3.0,49,0.00,,,0.00,meteohub,2013-11-29 15:41:00,
2013-11-29 10:46:00,38.8,20.3,30.57,WNW,285,1.0,3.0,47,0.00,,,0.00,meteohub,2013-11-29 15:46:00,
2013-11-29 10:51:00,39.4,20.8,30.56,SSW,206,3.0,5.0,47,0.00,,,0.00,meteohub,2013-11-29 15:51:00,
2013-11-29 10:56:00,39.0,19.4,30.56,WNW,292,0.0,5.0,45,0.00,,,0.00,meteohub,2013-11-29 15:56:00,
2013-11-29 11:01:00,39.6,20.5,30.56,NW,305,0.0,5.0,46,0.00,,,0.00,meteohub,2013-11-29 16:01:00,
2013-11-29 11:07:00,39.9,20.8,30.56,NW,305,3.0,5.0,46,0.00,,,0.00,meteohub,2013-11-29 16:07:00,
2013-11-29 11:12:00,39.9,20.3,30.56,NW,305,2.0,5.0,45,0.00,,,0.00,meteohub,2013-11-29 16:12:00,
2013-11-29 11:17:00,40.5,20.8,30.56,NW,304,0.0,4.0,45,0.00,,,0.00,meteohub,2013-11-29 16:17:00,
2013-11-29 11:22:00,41.0,21.2,30.56,NW,305,3.0,4.0,45,0.00,,,0.00,meteohub,2013-11-29 16:22:00,
2013-11-29 11:28:00,41.4,20.5,30.56,NW,305,0.0,4.0,43,0.00,,,0.00,meteohub,2013-11-29 16:28:00,
2013-11-29 11:33:00,41.4,19.9,30.56,WNW,288,1.0,4.0,42,0.00,,,0.00,meteohub,2013-11-29 16:33:00,
2013-11-29 11:38:00,40.6,20.5,30.55,WSW,253,1.0,4.0,44,0.00,,,0.00,meteohub,2013-11-29 16:38:00,
2013-11-29 11:43:00,41.2,20.3,30.56,SW,233,2.0,4.0,43,0.00,,,0.00,meteohub,2013-11-29 16:43:00,
2013-11-29 11:49:00,40.5,19.8,30.55,SW,223,0.0,5.0,43,0.00,,,0.00,meteohub,2013-11-29 16:49:00,
2013-11-29 11:54:00,40.6,21.0,30.55,WNW,288,1.0,5.0,45,0.00,,,0.00,meteohub,2013-11-29 16:54:00,
2013-11-29 11:59:00,41.2,20.3,30.55,WSW,243,3.0,5.0,43,0.00,,,0.00,meteohub,2013-11-29 16:59:00,
2013-11-29 12:04:00,41.2,20.8,30.55,WSW,257,3.0,5.0,44,0.00,,,0.00,meteohub,2013-11-29 17:04:00,
2013-11-29 12:10:00,41.4,20.5,30.55,NW,304,0.0,5.0,43,0.00,,,0.00,meteohub,2013-11-29 17:10:00,
2013-11-29 12:15:00,41.7,20.8,30.55,NW,305,3.0,5.0,43,0.00,,,0.00,meteohub,2013-11-29 17:15:00,
2013-11-29 12:20:00,42.1,21.2,30.55,West,263,2.0,5.0,43,0.00,,,0.00,meteohub,2013-11-29 17:20:00,
2013-11-29 12:25:00,42.1,20.7,30.55,West,263,1.0,5.0,42,0.00,,,0.00,meteohub,2013-11-29 17:25:00,
2013-11-29 12:31:00,41.7,20.8,30.55,West,270,1.0,5.0,43,0.00,,,0.00,meteohub,2013-11-29 17:31:00,
2013-11-29 12:36:00,41.4,21.0,30.55,SW,236,2.0,5.0,44,0.00,,,0.00,meteohub,2013-11-29 17:36:00,
2013-11-29 12:41:00,41.4,21.6,30.55,WNW,303,3.0,5.0,45,0.00,,,0.00,meteohub,2013-11-29 17:41:00,
2013-11-29 12:46:00,41.4,21.0,30.55,SW,231,1.0,5.0,44,0.00,,,0.00,meteohub,2013-11-29 17:46:00,
2013-11-29 12:51:00,41.2,20.8,30.55,NW,305,3.0,5.0,44,0.00,,,0.00,meteohub,2013-11-29 17:51:00,
2013-11-29 12:56:00,41.4,21.6,30.55,West,263,0.0,6.0,45,0.00,,,0.00,meteohub,2013-11-29 17:56:00,
2013-11-29 13:01:00,41.5,21.2,30.55,NW,305,4.0,6.0,44,0.00,,,0.00,meteohub,2013-11-29 18:01:00,
2013-11-29 13:06:00,41.7,20.8,30.55,NW,305,4.0,6.0,43,0.00,,,0.00,meteohub,2013-11-29 18:06:00,
2013-11-29 13:11:00,41.7,20.8,30.55,NW,305,2.0,6.0,43,0.00,,,0.00,meteohub,2013-11-29 18:11:00,
2013-11-29 13:16:00,41.9,21.6,30.55,NW,305,1.0,6.0,44,0.00,,,0.00,meteohub,2013-11-29 18:16:00,
2013-11-29 13:21:00,42.3,21.9,30.55,NW,305,2.0,6.0,44,0.00,,,0.00,meteohub,2013-11-29 18:21:00,
2013-11-29 13:26:00,41.9,21.6,30.55,ENE,70,4.0,6.0,44,0.00,,,0.00,meteohub,2013-11-29 18:26:00,
2013-11-29 13:31:00,41.9,21.6,30.55,East,98,2.0,6.0,44,0.00,,,0.00,meteohub,2013-11-29 18:31:00,
2013-11-29 13:36:00,42.1,21.7,30.55,NE,49,1.0,6.0,44,0.00,,,0.00,meteohub,2013-11-29 18:36:00,
2013-11-29 13:41:00,41.7,21.4,30.55,NE,49,3.0,6.0,44,0.00,,,0.00,meteohub,2013-11-29 18:41:00,
2013-11-29 13:47:00,41.4,21.0,30.55,North,6,1.0,6.0,44,0.00,,,0.00,meteohub,2013-11-29 18:47:00,
2013-11-29 13:52:00,40.6,20.5,30.55,NE,37,1.0,6.0,44,0.00,,,0.00,meteohub,2013-11-29 18:52:00,
2013-11-29 13:57:00,40.1,20.5,30.55,NNE,23,3.0,6.0,45,0.00,,,0.00,meteohub,2013-11-29 18:57:00,
2013-11-29 14:02:00,39.9,20.3,30.55,North,6,6.0,6.0,45,0.00,,,0.00,meteohub,2013-11-29 19:02:00,
2013-11-29 14:07:00,39.9,20.3,30.55,North,6,2.0,6.0,45,0.00,,,0.00,meteohub,2013-11-29 19:07:00,
2013-11-29 14:13:00,39.9,20.8,30.55,North,6,2.0,6.0,46,0.00,,,0.00,meteohub,2013-11-29 19:13:00,
2013-11-29 14:18:00,39.9,20.3,30.55,SW,214,1.0,6.0,45,0.00,,,0.00,meteohub,2013-11-29 19:18:00,
2013-11-29 14:23:00,40.1,21.0,30.56,NW,304,0.0,7.0,46,0.00,,,0.00,meteohub,2013-11-29 19:23:00,
2013-11-29 14:28:00,40.8,21.2,30.56,NW,305,0.0,7.0,45,0.00,,,0.00,meteohub,2013-11-29 19:28:00,
2013-11-29 14:33:00,41.2,20.8,30.56,West,266,1.0,7.0,44,0.00,,,0.00,meteohub,2013-11-29 19:33:00,
2013-11-29 14:39:00,41.7,20.8,30.56,WSW,257,1.0,7.0,43,0.00,,,0.00,meteohub,2013-11-29 19:39:00,
2013-11-29 14:44:00,40.8,20.7,30.56,NW,305,2.0,7.0,44,0.00,,,0.00,meteohub,2013-11-29 19:44:00,
2013-11-29 14:49:00,40.3,20.7,30.56,NW,305,0.0,7.0,45,0.00,,,0.00,meteohub,2013-11-29 19:49:00,
2013-11-29 14:54:00,39.7,20.7,30.56,NW,305,0.0,5.0,46,0.00,,,0.00,meteohub,2013-11-29 19:54:00,
2013-11-29 15:00:00,39.4,20.8,30.56,West,266,1.0,5.0,47,0.00,,,0.00,meteohub,2013-11-29 20:00:00,
2013-11-29 15:05:00,39.4,21.4,30.57,WNW,294,2.0,5.0,48,0.00,,,0.00,meteohub,2013-11-29 20:05:00,
2013-11-29 15:10:00,39.6,21.6,30.57,NW,305,1.0,5.0,48,0.00,,,0.00,meteohub,2013-11-29 20:10:00,
2013-11-29 15:15:00,39.9,21.7,30.57,NW,304,2.0,5.0,48,0.00,,,0.00,meteohub,2013-11-29 20:15:00,
2013-11-29 15:21:00,39.9,21.4,30.57,WNW,298,3.0,6.0,47,0.00,,,0.00,meteohub,2013-11-29 20:21:00,
2013-11-29 15:26:00,39.7,21.7,30.57,WSW,246,0.0,6.0,48,0.00,,,0.00,meteohub,2013-11-29 20:26:00,
2013-11-29 15:31:00,39.6,21.6,30.57,WNW,295,1.0,6.0,48,0.00,,,0.00,meteohub,2013-11-29 20:31:00,
2013-11-29 15:36:00,39.0,21.0,30.58,WNW,300,1.0,6.0,48,0.00,,,0.00,meteohub,2013-11-29 20:36:00,
2013-11-29 15:41:00,38.8,21.4,30.58,WNW,302,1.0,6.0,49,0.00,,,0.00,meteohub,2013-11-29 20:41:00,
2013-11-29 15:46:00,38.5,21.0,30.58,West,266,1.0,5.0,49,0.00,,,0.00,meteohub,2013-11-29 20:46:00,
2013-11-29 15:51:00,38.1,20.7,30.58,West,265,3.0,5.0,49,0.00,,,0.00,meteohub,2013-11-29 20:51:00,
2013-11-29 15:56:00,37.8,20.3,30.58,WSW,257,1.0,5.0,49,0.00,,,0.00,meteohub,2013-11-29 20:56:00,
2013-11-29 16:01:00,37.6,20.1,30.58,WSW,252,1.0,5.0,49,0.00,,,0.00,meteohub,2013-11-29 21:01:00,
2013-11-29 16:06:00,37.6,20.1,30.59,WSW,250,0.0,5.0,49,0.00,,,0.00,meteohub,2013-11-29 21:06:00,
2013-11-29 16:11:00,37.4,19.9,30.59,NW,304,1.0,5.0,49,0.00,,,0.00,meteohub,2013-11-29 21:11:00,
2013-11-29 16:16:00,37.2,19.8,30.59,NW,305,1.0,6.0,49,0.00,,,0.00,meteohub,2013-11-29 21:16:00,
2013-11-29 16:21:00,37.0,19.6,30.60,NW,304,0.0,6.0,49,0.00,,,0.00,meteohub,2013-11-29 21:21:00,
2013-11-29 16:26:00,36.9,19.4,30.60,WSW,243,0.0,6.0,49,0.00,,,0.00,meteohub,2013-11-29 21:26:00,
2013-11-29 16:31:00,36.7,18.9,30.61,WNW,284,2.0,6.0,48,0.00,,,0.00,meteohub,2013-11-29 21:31:00,
2013-11-29 16:36:00,36.5,18.7,30.61,WNW,298,2.0,4.0,48,0.00,,,0.00,meteohub,2013-11-29 21:36:00,
2013-11-29 16:41:00,36.3,18.5,30.61,NW,305,2.0,4.0,48,0.00,,,0.00,meteohub,2013-11-29 21:41:00,
2013-11-29 16:46:00,36.3,18.5,30.61,NW,304,0.0,4.0,48,0.00,,,0.00,meteohub,2013-11-29 21:46:00,
2013-11-29 16:51:00,36.1,18.9,30.62,WNW,301,2.0,4.0,49,0.00,,,0.00,meteohub,2013-11-29 21:51:00,
2013-11-29 16:56:00,36.1,18.9,30.62,WSW,249,0.0,5.0,49,0.00,,,0.00,meteohub,2013-11-29 21:56:00,
2013-11-29 17:01:00,36.0,18.7,30.62,NW,305,1.0,5.0,49,0.00,,,0.00,meteohub,2013-11-29 22:01:00,
2013-11-29 17:06:00,36.0,18.7,30.62,NW,305,1.0,5.0,49,0.00,,,0.00,meteohub,2013-11-29 22:06:00,
2013-11-29 17:11:00,35.8,18.0,30.62,West,271,0.0,5.0,48,0.00,,,0.00,meteohub,2013-11-29 22:11:00,
2013-11-29 17:16:00,35.8,18.0,30.62,WSW,245,2.0,4.0,48,0.00,,,0.00,meteohub,2013-11-29 22:16:00,
2013-11-29 17:21:00,35.8,18.5,30.63,NW,305,1.0,4.0,49,0.00,,,0.00,meteohub,2013-11-29 22:21:00,
2013-11-29 17:26:00,35.6,18.3,30.63,WNW,303,3.0,4.0,49,0.00,,,0.00,meteohub,2013-11-29 22:26:00,
2013-11-29 17:31:00,35.4,18.1,30.63,NW,304,1.0,8.0,49,0.00,,,0.00,meteohub,2013-11-29 22:31:00,
2013-11-29 17:36:00,35.4,18.1,30.64,NW,305,0.0,8.0,49,0.00,,,0.00,meteohub,2013-11-29 22:36:00,
2013-11-29 17:41:00,35.2,18.0,30.64,WNW,298,0.0,8.0,49,0.00,,,0.00,meteohub,2013-11-29 22:41:00,
2013-11-29 17:46:00,35.2,18.0,30.64,NW,305,3.0,8.0,49,0.00,,,0.00,meteohub,2013-11-29 22:46:00,
2013-11-29 17:51:00,35.2,18.5,30.64,SW,232,0.0,5.0,50,0.00,,,0.00,meteohub,2013-11-29 22:51:00,
2013-11-29 17:57:00,35.1,18.3,30.64,WSW,250,0.0,5.0,50,0.00,,,0.00,meteohub,2013-11-29 22:57:00,
2013-11-29 18:02:00,35.1,18.7,30.64,WSW,239,1.0,5.0,51,0.00,,,0.00,meteohub,2013-11-29 23:02:00,
2013-11-29 18:07:00,35.1,18.7,30.64,WNW,288,0.0,5.0,51,0.00,,,0.00,meteohub,2013-11-29 23:07:00,
2013-11-29 18:12:00,34.9,18.5,30.65,NW,305,2.0,5.0,51,0.00,,,0.00,meteohub,2013-11-29 23:12:00,
2013-11-29 18:17:00,34.9,18.5,30.65,West,273,0.0,4.0,51,0.00,,,0.00,meteohub,2013-11-29 23:17:00,
2013-11-29 18:23:00,34.9,18.1,30.65,WNW,300,0.0,4.0,50,0.00,,,0.00,meteohub,2013-11-29 23:23:00,
2013-11-29 18:28:00,34.9,17.6,30.65,WSW,239,0.0,4.0,49,0.00,,,0.00,meteohub,2013-11-29 23:28:00,
2013-11-29 18:33:00,34.7,17.4,30.65,NW,305,0.0,4.0,49,0.00,,,0.00,meteohub,2013-11-29 23:33:00,
2013-11-29 18:38:00,34.5,17.8,30.65,NW,305,0.0,4.0,50,0.00,,,0.00,meteohub,2013-11-29 23:38:00,
2013-11-29 18:44:00,34.5,17.8,30.65,NW,305,0.0,2.0,50,0.00,,,0.00,meteohub,2013-11-29 23:44:00,
2013-11-29 18:49:00,34.3,17.6,30.65,WNW,298,0.0,2.0,50,0.00,,,0.00,meteohub,2013-11-29 23:49:00,
2013-11-29 18:54:00,34.3,17.6,30.66,WNW,298,0.0,2.0,50,0.00,,,0.00,meteohub,2013-11-29 23:54:00,
2013-11-29 18:59:00,34.2,18.0,30.66,West,271,0.0,2.0,51,0.00,,,0.00,meteohub,2013-11-29 23:59:00,
2013-11-29 19:05:00,34.2,18.0,30.66,WSW,253,1.0,2.0,51,0.00,,,0.00,meteohub,2013-11-30 00:05:00,
2013-11-29 19:10:00,34.3,18.1,30.66,WNW,301,1.0,-999.0,51,0.00,,,0.00,meteohub,2013-11-30 00:10:00,
2013-11-29 19:15:00,34.3,17.6,30.66,WNW,284,0.0,4.0,50,0.00,,,0.00,meteohub,2013-11-30 00:15:00,
2013-11-29 19:20:00,34.3,17.6,30.67,West,274,0.0,4.0,50,0.00,,,0.00,meteohub,2013-11-30 00:20:00,
2013-11-29 19:26:00,34.2,18.0,30.67,West,277,0.0,4.0,51,0.00,,,0.00,meteohub,2013-11-30 00:26:00,
2013-11-29 19:31:00,34.2,18.0,30.67,West,264,1.0,1.0,51,0.00,,,0.00,meteohub,2013-11-30 00:31:00,
2013-11-29 19:36:00,34.2,18.0,30.67,West,263,0.0,1.0,51,0.00,,,0.00,meteohub,2013-11-30 00:36:00,
2013-11-29 19:41:00,34.0,17.8,30.67,NW,305,1.0,1.0,51,0.00,,,0.00,meteohub,2013-11-30 00:41:00,
2013-11-29 19:46:00,34.0,17.8,30.67,SW,229,1.0,1.0,51,0.00,,,0.00,meteohub,2013-11-30 00:46:00,
2013-11-29 19:51:00,34.0,17.8,30.67,WSW,243,1.0,2.0,51,0.00,,,0.00,meteohub,2013-11-30 00:51:00,
2013-11-29 19:56:00,34.0,18.1,30.67,West,264,0.0,2.0,52,0.00,,,0.00,meteohub,2013-11-30 00:56:00,
2013-11-29 20:01:00,34.0,17.8,30.67,NW,304,1.0,2.0,51,0.00,,,0.00,meteohub,2013-11-30 01:01:00,
2013-11-29 20:06:00,34.0,18.1,30.67,WNW,301,0.0,2.0,52,0.00,,,0.00,meteohub,2013-11-30 01:06:00,
2013-11-29 20:11:00,34.0,18.1,30.68,NW,305,0.0,2.0,52,0.00,,,0.00,meteohub,2013-11-30 01:11:00,
2013-11-29 20:16:00,33.6,17.8,30.68,NW,305,0.0,3.0,52,0.00,,,0.00,meteohub,2013-11-30 01:16:00,
2013-11-29 20:21:00,33.6,17.8,30.68,SW,221,0.0,3.0,52,0.00,,,0.00,meteohub,2013-11-30 01:21:00,
2013-11-29 20:26:00,33.6,17.8,30.68,WSW,257,1.0,3.0,52,0.00,,,0.00,meteohub,2013-11-30 01:26:00,
2013-11-29 20:31:00,33.6,17.8,30.68,SW,229,0.0,3.0,52,0.00,,,0.00,meteohub,2013-11-30 01:31:00,
2013-11-29 20:36:00,33.6,17.8,30.68,NW,305,0.0,3.0,52,0.00,,,0.00,meteohub,2013-11-30 01:36:00,
2013-11-29 20:41:00,33.4,18.1,30.69,West,271,3.0,3.0,53,0.00,,,0.00,meteohub,2013-11-30 01:41:00,
2013-11-29 20:46:00,33.4,18.1,30.69,WSW,247,1.0,3.0,53,0.00,,,0.00,meteohub,2013-11-30 01:46:00,
2013-11-29 20:51:00,33.4,18.5,30.69,North,6,1.0,4.0,54,0.00,,,0.00,meteohub,2013-11-30 01:51:00,
2013-11-29 20:56:00,33.4,18.5,30.69,North,8,0.0,4.0,54,0.00,,,0.00,meteohub,2013-11-30 01:56:00,
2013-11-29 21:01:00,33.4,18.5,30.69,WSW,256,1.0,4.0,54,0.00,,,0.00,meteohub,2013-11-30 02:01:00,
2013-11-29 21:06:00,33.4,18.5,30.69,SW,232,1.0,4.0,54,0.00,,,0.00,meteohub,2013-11-30 02:06:00,
2013-11-29 21:11:00,33.3,18.5,30.69,WNW,298,1.0,4.0,54,0.00,,,0.00,meteohub,2013-11-30 02:11:00,
2013-11-29 21:16:00,33.3,18.9,30.69,WSW,242,0.0,4.0,55,0.00,,,0.00,meteohub,2013-11-30 02:16:00,
2013-11-29 21:21:00,33.1,18.7,30.69,WSW,242,0.0,4.0,55,0.00,,,0.00,meteohub,2013-11-30 02:21:00,
2013-11-29 21:26:00,33.1,18.7,30.70,WSW,255,1.0,4.0,55,0.00,,,0.00,meteohub,2013-11-30 02:26:00,
2013-11-29 21:31:00,32.9,18.1,30.70,SW,226,0.0,5.0,54,0.00,,,0.00,meteohub,2013-11-30 02:31:00,
2013-11-29 21:36:00,32.9,18.5,30.70,WSW,243,0.0,5.0,55,0.00,,,0.00,meteohub,2013-11-30 02:36:00,
2013-11-29 21:41:00,32.7,18.3,30.70,SW,233,1.0,5.0,55,0.00,,,0.00,meteohub,2013-11-30 02:41:00,
2013-11-29 21:46:00,32.7,18.3,30.70,SW,222,0.0,5.0,55,0.00,,,0.00,meteohub,2013-11-30 02:46:00,
2013-11-29 21:51:00,32.7,18.3,30.70,WSW,245,0.0,4.0,55,0.00,,,0.00,meteohub,2013-11-30 02:51:00,
2013-11-29 21:56:00,32.5,18.1,30.70,WSW,239,0.0,4.0,55,0.00,,,0.00,meteohub,2013-11-30 02:56:00,
2013-11-29 22:01:00,32.5,18.5,30.70,WSW,257,1.0,4.0,56,0.00,,,0.00,meteohub,2013-11-30 03:01:00,
2013-11-29 22:06:00,32.5,18.5,30.70,SW,229,2.0,4.0,56,0.00,,,0.00,meteohub,2013-11-30 03:06:00,
2013-11-29 22:11:00,32.5,18.5,30.70,SW,231,0.0,4.0,56,0.00,,,0.00,meteohub,2013-11-30 03:11:00,
2013-11-29 22:16:00,32.4,18.9,30.70,SW,231,0.0,5.0,57,0.00,,,0.00,meteohub,2013-11-30 03:16:00,
2013-11-29 22:21:00,32.2,18.7,30.70,WSW,243,0.0,5.0,57,0.00,,,0.00,meteohub,2013-11-30 03:21:00,
2013-11-29 22:26:00,32.2,18.7,30.71,NW,305,0.0,5.0,57,0.00,,,0.00,meteohub,2013-11-30 03:26:00,
2013-11-29 22:31:00,32.0,18.9,30.71,NW,305,0.0,2.0,58,0.00,,,0.00,meteohub,2013-11-30 03:31:00,
2013-11-29 22:36:00,31.8,18.7,30.71,NW,305,0.0,2.0,58,0.00,,,0.00,meteohub,2013-11-30 03:36:00,
2013-11-29 22:41:00,31.8,18.7,30.71,NW,304,0.0,2.0,58,0.00,,,0.00,meteohub,2013-11-30 03:41:00,
2013-11-29 22:47:00,31.8,18.7,30.71,WSW,248,1.0,2.0,58,0.00,,,0.00,meteohub,2013-11-30 03:47:00,
2013-11-29 22:52:00,31.8,18.7,30.71,WSW,245,0.0,2.0,58,0.00,,,0.00,meteohub,2013-11-30 03:52:00,
2013-11-29 22:57:00,31.8,18.3,30.71,SW,233,0.0,2.0,57,0.00,,,0.00,meteohub,2013-11-30 03:57:00,
2013-11-29 23:02:00,31.8,18.3,30.71,SW,217,1.0,2.0,57,0.00,,,0.00,meteohub,2013-11-30 04:02:00,
2013-11-29 23:07:00,31.8,18.3,30.71,WSW,246,0.0,2.0,57,0.00,,,0.00,meteohub,2013-11-30 04:07:00,
2013-11-29 23:12:00,31.8,18.0,30.71,WSW,245,1.0,2.0,56,0.00,,,0.00,meteohub,2013-11-30 04:12:00,
2013-11-29 23:18:00,31.8,18.0,30.71,WSW,240,0.0,3.0,56,0.00,,,0.00,meteohub,2013-11-30 04:18:00,
2013-11-29 23:23:00,31.8,17.4,30.72,SW,223,1.0,3.0,55,0.00,,,0.00,meteohub,2013-11-30 04:23:00,
2013-11-29 23:28:00,31.8,17.4,30.71,SW,233,1.0,3.0,55,0.00,,,0.00,meteohub,2013-11-30 04:28:00,
2013-11-29 23:33:00,31.8,17.4,30.71,WSW,240,0.0,4.0,55,0.00,,,0.00,meteohub,2013-11-30 04:33:00,
2013-11-29 23:39:00,31.6,17.2,30.72,WSW,239,1.0,4.0,55,0.00,,,0.00,meteohub,2013-11-30 04:39:00,
2013-11-29 23:44:00,31.6,17.2,30.72,WSW,239,1.0,4.0,55,0.00,,,0.00,meteohub,2013-11-30 04:44:00,
2013-11-29 23:49:00,31.6,17.8,30.72,SW,235,0.0,4.0,56,0.00,,,0.00,meteohub,2013-11-30 04:49:00,
2013-11-29 23:54:00,31.6,17.8,30.72,SW,236,0.0,3.0,56,0.00,,,0.00,meteohub,2013-11-30 04:54:00,
2013-11-29 23:59:00,31.5,18.0,30.72,SW,236,0.0,3.0,57,0.00,,,0.00,meteohub,2013-11-30 04:59:00,